STARLINK-3229 (49751 NORAD) Tracking and Keplerian Element Data
This shows tracking and keplerian element data for the satellite.
Feedback or suggestion? Click here.
Element | Value |
Catalog | 49751 |
Name | STARLINK-3229 |
Epoch Orbit | 130 |
Epoch Day | 140.58334491 |
Epoch Year | 2022 |
RAAN | 265.0458 |
Inclination | 53.2215 |
Eccentricity | 0.000198 |
Argument of Perigee | 45.5028 |
Mean Anonmoly | 250.9615 |
Mean Motion | 15.08815026 |
Decay Rate | -1.053E-05 |
L1 | 1 49751U 21115AD 22140.58334491 -.00001053 00000+0 -48105-4 0 9994 |
L2 | 2 49751 53.2215 265.0458 0001980 45.5028 250.9615 15.08815026 1306 |
Live tracking and technical data element details for STARLINK-3229 (NORAD 49751). STARLINK-3229 can be tracked NOW for your location showing map with azimuth and elevation plus other details from your city location.
Track the satellite on the map from your city or location and see movement details for azimuth, elevation, latitude, longitude, range, height, and movement on the map or in text.
IsCatalogInMostPopularTable: catalog: 49751, numindb: 21
Update: records affected: 1
GetName: 49751 STARLINK-3229
Hit Count: updated at: Sun, 22 May 2022 04:49:41 GMT